Regional Weather Roundup
Issued by NWS

Home | Current Version | Previous Version | Graphics & Text | Print | Product List | Glossary On
Versions: 1 2 3 4 5 6 7 8 9 10 11 12 13 14 15 16 17 18 19 20 21 22 23 24 25 26 27 28 29 30 31 32 33 34 35 36 37 38 39 40 41 42 43 44 45 46 47 48 49 50
000
ASUS43 KIND 010709
RWRIN

WEATHER ROUNDUP FOR INDIANA
NATIONAL WEATHER SERVICE INDIANAPOLIS IN
300 AM EDT WED JUL 01 2015

NOTE: "FAIR" INDICATES FEW OR NO CLOUDS BELOW 12,000 FEET WITH NO
SIGNIFICANT WEATHER AND/OR OBSTRUCTIONS TO VISIBILITY.

* - STATION DOES NOT REPORT WEATHER SUCH AS PRECIPITATION OR FOG.

+ - STATION NOT QUALITY CONTROLLED BY THE NATIONAL WEATHER SERVICE.
    USE DATA WITH CAUTION...ESPECIALLY DEWPOINT AND RELATIVE
    HUMIDITY OBSERVATIONS.

INZ001>003-010>013-019-020-010800-
NORTHWEST INDIANA

CITY           SKY/WX    TMP DP  RH WIND       PRES   REMARKS
GARY /AIRPORT/ MOCLDY   N/A N/A N/A N7        29.92S
KNOX *+        CLEAR     55  55 100 W3        29.90S
LA PORTE +     CLEAR    N/A N/A N/A NW6       29.91S
MICHIGAN CITY+ CLEAR     55  55 100 W3        29.92R
MONTICELLO +   CLEAR     60  59  96 CALM      29.90R
RENSSELAER +   CLEAR     59  59 100 CALM      29.91F
VALPARAISO     CLOUDY    59  56  89 N5        29.91S

$$

LMZ046-743>745-010800-
SOUTHERN LAKE MICHIGAN

STATION/POSITION TIME  TEMP    WIND        PRES    WAVE
                       AIR SEA DIR/SP/G            HT
                 (UTC) (F)     (DEG/KT/KT) (MB)    (FT)
BURNS HARBOR     0700   60     330/  5/  6 1013.9S
MICHIGAN CITY    0700   59     330/  8/ 10   N/A
5NW MICH CITY    0700   59 65  340/  6/ 10   N/A     3

$$

INZ004-005-014>016-021>024-010800-
NORTH CENTRAL INDIANA

CITY           SKY/WX    TMP DP  RH WIND       PRES   REMARKS
GOSHEN         CLEAR     56  54  93 W7        29.88S
LOGANSPORT +   CLEAR     59  55  88 N5        29.91R
PERU/GRISSOM   CLEAR     61  57  87 NW6       29.89S
ROCHESTER +    CLEAR     61  61 100 W6        29.90S
SOUTH BEND     CLEAR     58  55  90 NW9       29.90R
WARSAW +         N/A     55  55 100 NW6       29.89R

$$

INZ006>009-017-018-025>027-010800-
NORTHEAST INDIANA

CITY           SKY/WX    TMP DP  RH WIND       PRES   REMARKS
ANGOLA *+      PTCLDY    57  57 100 W5        29.86S
AUBURN +       CLEAR     57  54  88 W6        29.87S
FORT WAYNE     PTCLDY    59  57  93 W6        29.87F
HUNTINGTON +   CLEAR     59  57  95 W3        29.88R

$$

INZ028-029-035-036-043>045-051>053-010800-
WEST CENTRAL INDIANA

CITY           SKY/WX    TMP DP  RH WIND       PRES   REMARKS
CRAWFORDSVL +  PTCLDY    58  57  97 CALM      29.91R FOG
GREENCASTLE +  CLEAR     63  59  88 CALM      29.91R
LAFAYETTE      CLEAR     62  59  90 N5        29.90S
TERRE HAUTE    CLEAR     63  62  97 CALM      29.90S FOG

$$

INZ030>032-037>040-046>048-054>057-064-065-010800-
CENTRAL INDIANA

CITY           SKY/WX    TMP DP  RH WIND       PRES   REMARKS
CP ATTERBURY + CLEAR     61  59  94 CALM      29.89F FOG
FRANKFORT +    CLEAR    N/A N/A N/A CALM      29.92S
GREENWOOD *+   CLEAR     63  59  88 CALM      29.90S
INDIANAPOLIS   CLEAR     66  61  84 CALM      29.88S
-EAGLE CREEK   CLEAR     65  63  93 CALM      29.89S
KOKOMO *+      CLEAR     61  55  82 NW7       29.89S
MARION +       CLEAR     58  57  97 NW3       29.90S
MT COMFORT *+  PTCLDY    63 N/A N/A CALM      29.90S
SHELBYVILLE    CLEAR     61  58  90 CALM      29.88F FOG
ZIONSVILLE +     N/A     62  58  89 CALM      29.91S FOG

$$

INZ033-034-041-042-049-050-058-059-010800-
EAST CENTRAL INDIANA

CITY           SKY/WX    TMP DP  RH WIND       PRES   REMARKS
MUNCIE         CLEAR     62  59  90 W5        29.89S

$$

INZ060-061-067>069-081>083-085>088-010800-
SOUTHWEST INDIANA

CITY           SKY/WX    TMP DP  RH WIND       PRES   REMARKS
EVANSVILLE     CLEAR     73  68  84 W6        29.89F
HUNTINGBURG *+ PTCLDY    70  66  88 CALM      29.89S
WASHINGTON +   CLEAR     66  62  87 CALM      29.88S FOG

$$

INZ062-063-066-070>080-084-089>092-010800-
SOUTH CENTRAL AND SOUTHEAST INDIANA

CITY           SKY/WX    TMP DP  RH WIND       PRES   REMARKS
BLOOMINGTON    FOG       61  60  97 CALM      29.89S VSB 3/4
MADISON *+     PTCLDY    63  61  94 CALM      29.90F
NORTH VERNON + CLEAR     64  64 100 CALM      29.89F FOG
SEYMOUR +      FOG       64  64 100 CALM      29.88F VSB 1/4

$$



USA.gov is the U.S. government's official web portal to all federal, state and local government web resources and services.